Погода в Кака

Россия / Республика Дагестан     41°28′42″N   47°38′12″E
темп.,
°C
ветер,
м/с
пор.,
м/с
влажн.,
%
обл.,
%
осадки,
мм/ч
давл.,
гПа
погр.,
м
7 июля, чт
чт700:00+9з34700 0.0 101947
03:00+9з44690 0.0 101848
06:00+12з34680 0.0 1017140
09:00+18в12452 0.0 1014978
12:00+18в435693 0.0 1013955
15:00+18в436019 0.1 1013984
18:00+16в32725 0.2 1014493
21:00+11з33860 0.2 101631
8 июля, пт
пт800:00+11з33750 0.0 101533
03:00+10з33760 0.0 101529
06:00+13з22700 0.0 101597
09:00+18в32601 0.0 1013782
12:00+20в435618 0.1 10131190
15:00+20в335126 0.8 10121350
18:00+17в22615 0.1 1013402
21:00+12зюз23720 0.1 101526
9 июля, сб
сб900:00+12з34690 0.0 101549
03:00+11з34661 0.0 101453
06:00+14з34663 0.0 1013111
09:00+20всв22415 0.0 10111057
12:00+22в434311 0.1 10101265
15:00+22в334030 0.1 10091625
18:00+19в23540 0.0 1010142
21:00+13з33580 0.0 101335
10 июля, вс
вс1000:00+13з45543 0.0 101156
03:00+12з45521 0.0 101155
06:00+15з45601 0.0 101099
09:00+22всв22374 0.0 1007995
12:00+23в33400 0.0 10071135
15:00+25в33370 0.0 10071503
18:00+21вюв13510 0.0 1008158
21:00+15з44540 0.0 101152
11 июля, пн
пн1100:00+15з45490 0.0 101060
03:00+14з45471 0.0 101056
06:00+17з35540 0.0 100973
09:00+24всв22340 0.0 1007778
12:00+24в44371 0.0 1009924
15:00+25в43370 0.0 10091072
18:00+22в22540 0.0 101196
21:00+16з23570 0.0 101524